Regional Weather Roundup
Issued by NWS

Home | Current Version | Previous Version | Graphics & Text | Print | Product List | Glossary On
Versions: 1 2 3 4 5 6 7 8 9 10 11 12 13 14 15 16 17 18 19 20 21 22 23 24 25 26 27 28 29 30 31 32 33 34 35 36 37 38 39 40 41 42 43 44 45 46 47 48 49 50
000
ASUS45 KSLC 141210
RWRUT

UTAH REGIONAL WEATHER ROUNDUP
NATIONAL WEATHER SERVICE SALT LAKE CITY UT
600 AM MDT SUN SEP 14 2014

UTZ001>011-023>025-141300-

NORTHERN UTAH

CITY           SKY/WX    TMP DP  RH WIND       PRES   REMARKS
HILL AFB       MOCLDY    62  34  35 E14       30.03R
LOGAN          CLEAR     47  41  80 CALM      30.03R
OGDEN          PTCLDY    60  35  39 S15       30.00R
PROVO AIRPORT  PTCLDY    52  43  71 CALM      30.06R
SALT LAKE CITY MOCLDY    63  39  41 SE8       29.99R
VERNAL         CLEAR     47  38  71 W6        30.13S
WENDOVER       PTCLDY    57  34  41 CALM      30.00S
HEBER CITY     PTCLDY    43  37  81 S3        30.14R
WEST JORDAN    CLEAR     66  34  30 S17       30.02R

$$

UTZ012>022-026-027-141300-

SOUTHERN UTAH

CITY           SKY/WX    TMP DP  RH WIND       PRES   REMARKS
BRYCE CANYON   PTCLDY    43  36  76 W5        30.29S
CEDAR CITY     CLEAR     53  36  52 NW3       30.13R
MILFORD        CLEAR     55  37  50 S8        30.08R
MOAB/CYNLANDS  CLEAR     60  38  43 CALM      30.07R
PRICE          PTCLDY    58  31  35 N5        30.15S
ST GEORGE      MOSUNNY   64  41  42 S3        29.99R
KANAB            N/A     54  37  54 N6        30.14R

$$

REGIONAL REPORTS     COLORADO/ARIZONA

CITY           SKY/WX    TMP DP  RH WIND       PRES   REMARKS
CRAIG, CO      CLEAR     37  33  85 CALM      30.20S
GRAND JUNCTION CLEAR     54  35  48 SE12      30.13R
RIFLE          CLEAR     45  36  70 SE3       30.21R
MONTROSE       PTCLDY    54  37  52 SE7       30.22R
CORTEZ         CLEAR     43  39  86 N3        30.23R
PAGE, AZ       CLEAR     71  44  37 CALM      30.06R
GRAND CANYON   PTCLDY    45  42  89 CALM      30.24R
KINGMAN        CLEAR     72  53  51 SE13      29.98S
FLAGSTAFF      CLEAR     49  45  86 CALM      30.26S

$$

REGIONAL REPORTS    NEVADA/IDAHO/WYOMING

CITY           SKY/WX    TMP DP  RH WIND       PRES   REMARKS
LAS VEGAS, NV  CLEAR     77  42  28 S8        29.83R
ELY            CLOUDY    52  29  41 SE7       30.15S
ELKO           PTCLDY    48  23  37 E6        30.07S
POCATELLO, ID  CLEAR     44  34  67 S3        30.04R
BURLEY         PTCLDY    46  38  73 CALM      30.00S
EVANSTON, WY   PTCLDY    51  28  41 S8        30.18S
ROCK SPRINGS   PTCLDY    55  24  30 CALM      30.16S

$$



USA.gov is the U.S. government's official web portal to all federal, state and local government web resources and services.